| time (UTC) | temp C | wind direction | speed KPH | gust KPH | rain 1hr cm | rain 24hr cm | rain mn cm | humidity % | barometer mb |
| 20260506051400 | 16 | 22 | 4.8 | 6.4 | 0.00 | 0.00 | 0.00 | 78 | 1012.5 |
| 20260506050907 | 17 | 270 | 3.2 | 6.4 | 0.00 | 0.00 | 0.00 | 78 | 1012.2 |
| 20260506050302 | 17 | 270 | 4.8 | 8.0 | 0.00 | 0.00 | 0.00 | 78 | 1012.2 |
| 20260506044719 | 17 | 270 | 4.8 | 8.0 | 0.00 | 0.00 | 0.00 | 78 | 1012.2 |
| 20260506044203 | 17 | 270 | 4.8 | 8.0 | 0.00 | 0.00 | 0.00 | 78 | 1012.2 |
| 20260506043657 | 17 | 315 | 4.8 | 8.0 | 0.00 | 0.00 | 0.00 | 78 | 1012.2 |
| 20260506043154 | 17 | 315 | 4.8 | 8.0 | 0.00 | 0.00 | 0.00 | 78 | 1012.1 |
| 20260506042655 | 17 | 135 | 4.8 | 6.4 | 0.00 | 0.00 | 0.00 | 78 | 1012.1 |
| 20260506042554 | 17 | 270 | 4.8 | 9.7 | 0.00 | 0.00 | 0.00 | 78 | 1011.8 |
| 20260506041600 | 17 | 270 | 6.4 | 9.7 | 0.00 | 0.00 | 0.00 | 78 | 1011.8 |
| 20260506041056 | 18 | 248 | 4.8 | 6.4 | 0.00 | 0.00 | 0.00 | 78 | 1011.7 |
| 20260506040528 | 18 | 292 | 4.8 | 8.0 | 0.00 | 0.00 | 0.00 | 77 | 1011.7 |
| 20260506035950 | 18 | 90 | 6.4 | 9.7 | 0.00 | 0.00 | 0.00 | 77 | 1011.7 |
| 20260506035443 | 18 | 292 | 4.8 | 9.7 | 0.00 | 0.00 | 0.00 | 77 | 1011.7 |
| 20260506034944 | 18 | 270 | 4.8 | 9.7 | 0.00 | 0.00 | 0.00 | 77 | 1011.7 |
| 20260506034429 | 18 | 270 | 4.8 | 8.0 | 0.00 | 0.00 | 0.00 | 77 | 1011.6 |
| 20260506033925 | 18 | 270 | 6.4 | 8.0 | 0.00 | 0.00 | 0.00 | 77 | 1011.6 |
| 20260506033355 | 18 | 315 | 6.4 | 8.0 | 0.00 | 0.00 | 0.00 | 77 | 1011.3 |
| 20260506032826 | 19 | 270 | 4.8 | 11.3 | 0.00 | 0.00 | 0.00 | 77 | 1011.3 |
| 20260506032311 | 20 | 0 | 6.4 | 11.3 | 0.00 | 0.00 | 0.00 | 76 | 1010.9 |
| 20260506031812 | 20 | 270 | 4.8 | 11.3 | 0.00 | 0.00 | 0.00 | 76 | 1010.9 |
| 20260506031243 | 20 | 292 | 3.2 | 8.0 | 0.00 | 0.00 | 0.00 | 75 | 1010.9 |
| 20260506030947 | 20 | 225 | 4.8 | 8.0 | 0.00 | 0.00 | 0.00 | 75 | 1010.9 |
| 20260506030215 | 21 | 270 | 4.8 | 6.4 | 0.00 | 0.00 | 0.00 | 75 | 1010.9 |
| 20260506025654 | 21 | 270 | 4.8 | 4.8 | 0.00 | 0.00 | 0.00 | 75 | 1010.6 |
| 20260506025149 | 21 | 292 | 4.8 | 8.0 | 0.00 | 0.00 | 0.00 | 75 | 1010.6 |
| 20260506024639 | 21 | 225 | 4.8 | 8.0 | 0.00 | 0.00 | 0.00 | 75 | 1010.1 |
| 20260506024135 | 21 | 225 | 4.8 | 6.4 | 0.00 | 0.00 | 0.00 | 74 | 1010.1 |
| 20260506023620 | 21 | 270 | 3.2 | 6.4 | 0.00 | 0.00 | 0.00 | 74 | 1010.1 |
| 20260506023052 | 21 | 270 | 6.4 | 8.0 | 0.00 | 0.00 | 0.00 | 74 | 1009.6 |
| 20260506022546 | 21 | 270 | 6.4 | 8.0 | 0.00 | 0.00 | 0.00 | 74 | 1009.6 |
| 20260506022024 | 22 | 0 | 4.8 | 6.4 | 0.00 | 0.00 | 0.00 | 73 | 1009.4 |
| 20260506021509 | 22 | 270 | 4.8 | 8.0 | 0.00 | 0.00 | 0.00 | 73 | 1009.4 |
| 20260506020939 | 22 | 270 | 6.4 | 8.0 | 0.00 | 0.00 | 0.00 | 73 | 1009.1 |
| 20260506020424 | 22 | 270 | 4.8 | 6.4 | 0.00 | 0.00 | 0.00 | 72 | 1009.1 |
| 20260506015911 | 23 | 270 | 3.2 | 4.8 | 0.00 | 0.00 | 0.00 | 72 | 1009.1 |
| 20260506015613 | 23 | 270 | 3.2 | 4.8 | 0.00 | 0.00 | 0.00 | 71 | 1009.1 |
| 20260506015108 | 23 | 270 | 1.6 | 4.8 | 0.00 | 0.00 | 0.00 | 71 | 1009.1 |
| 20260506014336 | 23 | 270 | 3.2 | 4.8 | 0.00 | 0.00 | 0.00 | 71 | 1008.9 |
| 20260506013807 | 23 | 180 | 3.2 | 8.0 | 0.00 | 0.00 | 0.00 | 71 | 1008.9 |
| 20260506013252 | 23 | 202 | 4.8 | 8.0 | 0.00 | 0.00 | 0.00 | 71 | 1009.0 |
| 20260506012747 | 23 | 22 | 3.2 | 4.8 | 0.00 | 0.00 | 0.00 | 71 | 1009.0 |
| 20260506012501 | 23 | 270 | 3.2 | 4.8 | 0.00 | 0.00 | 0.00 | 70 | 1008.6 |
| 20260506011733 | 23 | 270 | 3.2 | 6.4 | 0.00 | 0.00 | 0.00 | 70 | 1008.6 |
| 20260506011151 | 23 | 158 | 3.2 | 6.4 | 0.00 | 0.00 | 0.00 | 69 | 1008.3 |
| 20260506010635 | 23 | 292 | 3.2 | 6.4 | 0.00 | 0.00 | 0.00 | 69 | 1008.3 |
| 20260506010121 | 23 | 22 | 3.2 | 6.4 | 0.00 | 0.00 | 0.00 | 68 | 1008.3 |
| 20260506005614 | 23 | 292 | 3.2 | 6.4 | 0.00 | 0.00 | 0.00 | 68 | 1008.3 |
| 20260506005111 | 23 | 225 | 6.4 | 6.4 | 0.00 | 0.00 | 0.00 | 68 | 1008.3 |
| 20260506004600 | 24 | 270 | 3.2 | 9.7 | 0.00 | 0.00 | 0.00 | 68 | 1008.2 |
| 20260506004300 | 25 | 158 | 6.4 | 9.7 | 0.00 | 0.00 | 0.00 | 68 | 1008.2 |
| 20260506003957 | 25 | 292 | 6.4 | 8.0 | 0.00 | 0.00 | 0.00 | 67 | 1008.0 |
| 20260506003004 | 25 | 292 | 4.8 | 6.4 | 0.00 | 0.00 | 0.00 | 66 | 1008.0 |
| 20260506002443 | 26 | 90 | 4.8 | 8.0 | 0.00 | 0.00 | 0.00 | 65 | 1008.0 |
| 20260506001938 | 26 | 292 | 6.4 | 8.0 | 0.00 | 0.00 | 0.00 | 64 | 1008.1 |
| 20260506001649 | 26 | 338 | 4.8 | 6.4 | 0.00 | 0.00 | 0.00 | 63 | 1008.1 |
| 20260506001123 | 26 | 270 | 4.8 | 8.0 | 0.00 | 0.00 | 0.00 | 63 | 1007.5 |
| 20260506000345 | 27 | 270 | 6.4 | 9.7 | 0.00 | 0.00 | 0.00 | 63 | 1007.5 |
| 20260505235841 | 27 | 292 | 6.4 | 9.7 | 0.00 | 0.00 | 0.00 | 62 | 1007.3 |
| 20260505235325 | 27 | 270 | 6.4 | 8.0 | 0.00 | 0.00 | 0.00 | 61 | 1007.3 |
| 20260505234826 | 28 | 270 | 6.4 | 12.9 | 0.00 | 0.00 | 0.00 | 60 | 1007.3 |
| 20260505234515 | 28 | 292 | 6.4 | 12.9 | 0.00 | 0.00 | 0.00 | 59 | 1007.5 |
| 20260505233743 | 29 | 270 | 4.8 | 6.4 | 0.00 | 0.00 | 0.00 | 57 | 1007.5 |
| 20260505233159 | 30 | 248 | 4.8 | 6.4 | 0.00 | 0.00 | 0.00 | 54 | 1007.1 |
| 20260505232855 | 30 | 45 | 4.8 | 6.4 | 0.00 | 0.00 | 0.00 | 51 | 1007.1 |
| 20260505232101 | 30 | 270 | 4.8 | 6.4 | 0.00 | 0.00 | 0.00 | 49 | 1006.9 |
| 20260505231532 | 31 | 270 | 4.8 | 6.4 | 0.00 | 0.00 | 0.00 | 49 | 1006.9 |
| 20260505231003 | 31 | 292 | 4.8 | 8.0 | 0.00 | 0.00 | 0.00 | 49 | 1006.6 |
| 20260505230448 | 31 | 270 | 4.8 | 9.7 | 0.00 | 0.00 | 0.00 | 47 | 1006.6 |
| 20260505225944 | 32 | 270 | 6.4 | 9.7 | 0.00 | 0.00 | 0.00 | 48 | 1006.5 |
| 20260505225406 | 32 | 270 | 1.6 | 3.2 | 0.00 | 0.00 | 0.00 | 56 | 1006.5 |
| 20260505224900 | 32 | 202 | 0.0 | 4.8 | 0.00 | 0.00 | 0.00 | 56 | 1006.5 |
| 20260505224347 | 32 | 180 | 1.6 | 8.0 | 0.00 | 0.00 | 0.00 | 56 | 1006.4 |
| 20260505223831 | 32 | 248 | 4.8 | 8.0 | 0.00 | 0.00 | 0.00 | 55 | 1006.4 |
| 20260505223302 | 32 | 180 | 3.2 | 4.8 | 0.00 | 0.00 | 0.00 | 55 | 1006.1 |
| 20260505222733 | 32 | 270 | 3.2 | 6.4 | 0.00 | 0.00 | 0.00 | 54 | 1006.1 |
| 20260505222438 | 32 | 202 | 3.2 | 6.4 | 0.00 | 0.00 | 0.00 | 54 | 1005.9 |
| 20260505221714 | 32 | 225 | 1.6 | 6.4 | 0.00 | 0.00 | 0.00 | 55 | 1005.9 |
| 20260505221208 | 32 | 270 | 4.8 | 6.4 | 0.00 | 0.00 | 0.00 | 55 | 1005.9 |
| 20260505220702 | 32 | 202 | 3.2 | 9.7 | 0.00 | 0.00 | 0.00 | 55 | 1006.2 |
| 20260505220201 | 32 | 180 | 6.4 | 9.7 | 0.00 | 0.00 | 0.00 | 56 | 1006.2 |
| 20260505220131 | 32 | 270 | 3.2 | 6.4 | 0.00 | 0.00 | 0.00 | 57 | 1006.3 |
| 20260505215110 | 32 | 135 | 4.8 | 8.0 | 0.00 | 0.00 | 0.00 | 57 | 1006.3 |
| 20260505214605 | 32 | 248 | 4.8 | 8.0 | 0.00 | 0.00 | 0.00 | 57 | 1006.4 |
| 20260505214043 | 32 | 135 | 4.8 | 8.0 | 0.00 | 0.00 | 0.00 | 58 | 1006.4 |
| 20260505213527 | 32 | 248 | 3.2 | 8.0 | 0.00 | 0.00 | 0.00 | 58 | 1006.5 |
| 20260505212958 | 32 | 248 | 3.2 | 6.4 | 0.00 | 0.00 | 0.00 | 56 | 1006.5 |
| 20260505212442 | 32 | 248 | 4.8 | 6.4 | 0.00 | 0.00 | 0.00 | 56 | 1006.5 |
| 20260505211938 | 32 | 225 | 4.8 | 8.0 | 0.00 | 0.00 | 0.00 | 58 | 1006.7 |
| 20260505211424 | 32 | 270 | 4.8 | 8.0 | 0.00 | 0.00 | 0.00 | 59 | 1006.7 |
| 20260505210924 | 32 | 338 | 4.8 | 8.0 | 0.00 | 0.00 | 0.00 | 58 | 1006.7 |
| 20260505210342 | 32 | 202 | 4.8 | 8.0 | 0.00 | 0.00 | 0.00 | 58 | 1006.7 |
| 20260505205826 | 31 | 292 | 3.2 | 8.0 | 0.00 | 0.00 | 0.00 | 59 | 1006.9 |
| 20260505205257 | 32 | 202 | 4.8 | 6.4 | 0.00 | 0.00 | 0.00 | 58 | 1006.9 |
| 20260505205009 | 32 | 225 | 3.2 | 6.4 | 0.00 | 0.00 | 0.00 | 58 | 1007.2 |
| 20260505204230 | 32 | 270 | 4.8 | 11.3 | 0.00 | 0.00 | 0.00 | 57 | 1007.2 |
| 20260505203723 | 32 | 292 | 4.8 | 11.3 | 0.00 | 0.00 | 0.00 | 57 | 1007.2 |
| 20260505203210 | 32 | 225 | 6.4 | 8.0 | 0.00 | 0.00 | 0.00 | 56 | 1007.2 |
| 20260505202916 | 33 | 292 | 4.8 | 8.0 | 0.00 | 0.00 | 0.00 | 57 | 1007.2 |
| 20260505202139 | 32 | 225 | 3.2 | 8.0 | 0.00 | 0.00 | 0.00 | 58 | 1007.2 |
| 20260505201633 | 32 | 270 | 4.8 | 9.7 | 0.00 | 0.00 | 0.00 | 56 | 1007.2 |
| 20260505201351 | 32 | 270 | 6.4 | 9.7 | 0.00 | 0.00 | 0.00 | 55 | 1007.3 |
| 20260505200621 | 32 | 248 | 4.8 | 9.7 | 0.00 | 0.00 | 0.00 | 56 | 1007.3 |
| 20260505200111 | 32 | 270 | 6.4 | 9.7 | 0.00 | 0.00 | 0.00 | 55 | 1007.3 |
| 20260505195822 | 32 | 180 | 6.4 | 9.7 | 0.00 | 0.00 | 0.00 | 57 | 1007.4 |
| 20260505195031 | 32 | 225 | 4.8 | 9.7 | 0.00 | 0.00 | 0.00 | 57 | 1007.4 |
| 20260505194519 | 32 | 225 | 6.4 | 9.7 | 0.00 | 0.00 | 0.00 | 57 | 1007.4 |
| 20260505194017 | 32 | 292 | 4.8 | 8.0 | 0.00 | 0.00 | 0.00 | 57 | 1007.4 |
| 20260505193736 | 32 | 202 | 4.8 | 9.7 | 0.00 | 0.00 | 0.00 | 57 | 1007.4 |
| 20260505192957 | 32 | 112 | 6.4 | 9.7 | 0.00 | 0.00 | 0.00 | 59 | 1007.4 |
| 20260505192453 | 32 | 270 | 6.4 | 8.0 | 0.00 | 0.00 | 0.00 | 59 | 1007.4 |
| 20260505192203 | 31 | 248 | 6.4 | 8.0 | 0.00 | 0.00 | 0.00 | 59 | 1007.3 |
| 20260505191434 | 31 | 225 | 4.8 | 8.0 | 0.00 | 0.00 | 0.00 | 60 | 1007.3 |
| 20260505191149 | 31 | 202 | 4.8 | 8.0 | 0.00 | 0.00 | 0.00 | 60 | 1007.5 |
| 20260505190356 | 31 | 68 | 4.8 | 9.7 | 0.00 | 0.00 | 0.00 | 62 | 1007.5 |
| 20260505185840 | 30 | 270 | 6.4 | 9.7 | 0.00 | 0.00 | 0.00 | 63 | 1007.5 |
| 20260505185341 | 30 | 112 | 4.8 | 12.9 | 0.00 | 0.00 | 0.00 | 63 | 1007.5 |
| 20260505184759 | 29 | 180 | 6.4 | 12.9 | 0.00 | 0.00 | 0.00 | 64 | 1007.7 |
| 20260505184242 | 29 | 248 | 4.8 | 8.0 | 0.00 | 0.00 | 0.00 | 65 | 1007.7 |
| 20260505183713 | 29 | 202 | 4.8 | 8.0 | 0.00 | 0.00 | 0.00 | 64 | 1007.7 |
| 20260505183145 | 29 | 292 | 4.8 | 6.4 | 0.00 | 0.00 | 0.00 | 65 | 1007.6 |
| 20260505182631 | 28 | 292 | 4.8 | 8.0 | 0.00 | 0.00 | 0.00 | 66 | 1007.6 |
| 20260505182033 | 28 | 270 | 6.4 | 8.0 | 0.00 | 0.00 | 0.00 | 66 | 1007.8 |
| 20260505181531 | 29 | 180 | 6.4 | 8.0 | 0.00 | 0.00 | 0.00 | 65 | 1007.8 |
| 20260505181027 | 30 | 248 | 4.8 | 8.0 | 0.00 | 0.00 | 0.00 | 64 | 1007.6 |
| 20260505180513 | 30 | 248 | 3.2 | 6.4 | 0.00 | 0.00 | 0.00 | 64 | 1007.6 |
| 20260505180012 | 30 | 315 | 6.4 | 6.4 | 0.00 | 0.00 | 0.00 | 64 | 1007.6 |
| 20260505175459 | 30 | 225 | 4.8 | 6.4 | 0.00 | 0.00 | 0.00 | 63 | 1007.6 |
| 20260505175209 | 30 | 270 | 4.8 | 8.0 | 0.00 | 0.00 | 0.00 | 65 | 1007.6 |
| 20260505174920 | 29 | 270 | 4.8 | 9.7 | 0.00 | 0.00 | 0.00 | 67 | 1007.6 |
| 20260505174208 | 28 | 225 | 6.4 | 11.3 | 0.00 | 0.00 | 0.00 | 68 | 1007.6 |
| 20260505173656 | 28 | 225 | 6.4 | 11.3 | 0.00 | 0.00 | 0.00 | 66 | 1007.8 |
| 20260505172911 | 28 | 90 | 4.8 | 9.7 | 0.00 | 0.00 | 0.00 | 66 | 1007.8 |
| 20260505172405 | 29 | 180 | 6.4 | 9.7 | 0.00 | 0.00 | 0.00 | 65 | 1007.9 |
| 20260505171814 | 29 | 202 | 6.4 | 8.0 | 0.00 | 0.00 | 0.00 | 66 | 1007.9 |
| 20260505171644 | 28 | 270 | 4.8 | 8.0 | 0.00 | 0.00 | 0.00 | 68 | 1007.9 |
| 20260505171323 | 28 | 112 | 4.8 | 8.0 | 0.00 | 0.00 | 0.00 | 69 | 1007.9 |
| 20260505170238 | 28 | 292 | 6.4 | 8.0 | 0.00 | 0.00 | 0.00 | 68 | 1007.9 |
| 20260505170024 | 28 | 0 | 6.4 | 8.0 | 0.00 | 0.00 | 0.00 | 68 | 1007.8 |
| 20260505165218 | 28 | 270 | 4.8 | 11.3 | 0.00 | 0.00 | 0.00 | 68 | 1007.8 |
| 20260505164713 | 27 | 225 | 6.4 | 11.3 | 0.00 | 0.00 | 0.00 | 69 | 1007.9 |
| 20260505164151 | 27 | 270 | 6.4 | 9.7 | 0.00 | 0.00 | 0.00 | 69 | 1007.9 |
| 20260505163909 | 27 | 292 | 4.8 | 9.7 | 0.00 | 0.00 | 0.00 | 69 | 1007.9 |
| 20260505163155 | 27 | 158 | 3.2 | 9.7 | 0.00 | 0.00 | 0.00 | 70 | 1007.7 |
| 20260505162616 | 27 | 180 | 6.4 | 14.5 | 0.00 | 0.00 | 0.00 | 70 | 1007.7 |
| 20260505162101 | 27 | 270 | 6.4 | 14.5 | 0.00 | 0.00 | 0.00 | 69 | 1007.6 |
| 20260505161517 | 27 | 248 | 6.4 | 12.9 | 0.00 | 0.00 | 0.00 | 70 | 1007.6 |
| 20260505160947 | 27 | 270 | 8.0 | 12.9 | 0.00 | 0.00 | 0.00 | 70 | 1007.5 |
| 20260505160616 | 26 | 225 | 8.0 | 12.9 | 0.00 | 0.00 | 0.00 | 72 | 1007.3 |
| 20260505160444 | 27 | 338 | 4.8 | 11.3 | 0.00 | 0.00 | 0.00 | 71 | 1007.5 |
| 20260505160359 | 26 | 225 | 8.0 | 12.9 | 0.00 | 0.00 | 0.00 | 72 | 1007.3 |
| 20260505160151 | 26 | 225 | 8.0 | 12.9 | 0.00 | 0.00 | 0.00 | 72 | 1007.3 |
| 20260505152247 | 26 | 225 | 8.0 | 11.3 | 0.00 | 0.00 | 0.00 | 74 | 1007.6 |
| 20260505151747 | 25 | 270 | 6.4 | 12.9 | 0.00 | 0.00 | 0.00 | 76 | 1007.6 |
| 20260505151247 | 25 | 180 | 6.4 | 12.9 | 0.00 | 0.00 | 0.00 | 76 | 1007.6 |
| 20260505150739 | 25 | 180 | 8.0 | 12.9 | 0.00 | 0.00 | 0.00 | 76 | 1007.7 |
| 20260505150146 | 25 | 292 | 6.4 | 12.9 | 0.00 | 0.00 | 0.00 | 76 | 1007.7 |
| 20260505140154 | 23 | 225 | 4.8 | 9.7 | 0.00 | 0.00 | 0.00 | 81 | 1007.5 |
| 20260505130223 | 22 | 45 | 4.8 | 12.9 | 0.00 | 0.00 | 0.00 | 83 | 1007.5 |
| 20260505124853 | 21 | 270 | 6.4 | 9.7 | 0.00 | 0.00 | 0.00 | 84 | 1007.0 |
| 20260505124125 | 21 | 158 | 6.4 | 9.7 | 0.00 | 0.00 | 0.00 | 84 | 1007.0 |
| 20260505123556 | 21 | 158 | 6.4 | 9.7 | 0.00 | 0.00 | 0.00 | 84 | 1006.9 |
| 20260505123051 | 21 | 270 | 6.4 | 12.9 | 0.00 | 0.00 | 0.00 | 84 | 1006.9 |
| 20260505122542 | 21 | 158 | 6.4 | 12.9 | 0.00 | 0.00 | 0.00 | 84 | 1006.9 |
| 20260505122026 | 21 | 68 | 4.8 | 9.7 | 0.00 | 0.00 | 0.00 | 84 | 1006.9 |
| 20260505121523 | 21 | 202 | 4.8 | 8.0 | 0.00 | 0.00 | 0.00 | 84 | 1006.9 |
| 20260505121017 | 21 | 202 | 6.4 | 12.9 | 0.00 | 0.00 | 0.00 | 84 | 1006.9 |
| 20260505120508 | 21 | 202 | 8.0 | 12.9 | 0.00 | 0.00 | 0.00 | 84 | 1006.9 |
| 20260505115953 | 21 | 202 | 6.4 | 9.7 | 0.00 | 0.00 | 0.00 | 84 | 1006.9 |
| 20260505115449 | 21 | 225 | 6.4 | 9.7 | 0.00 | 0.00 | 0.00 | 84 | 1006.7 |
| 20260505115140 | 21 | 202 | 6.4 | 9.7 | 0.00 | 0.00 | 0.00 | 84 | 1006.7 |
| 20260505114904 | 21 | 292 | 4.8 | 9.7 | 0.00 | 0.00 | 0.00 | 84 | 1006.6 |
| 20260505113905 | 21 | 202 | 6.4 | 9.7 | 0.00 | 0.00 | 0.00 | 84 | 1006.6 |
| 20260505113336 | 21 | 68 | 3.2 | 8.0 | 0.00 | 0.00 | 0.00 | 84 | 1006.6 |
| 20260505112806 | 21 | 202 | 4.8 | 8.0 | 0.00 | 0.00 | 0.00 | 84 | 1006.6 |
| 20260505112238 | 21 | 225 | 6.4 | 8.0 | 0.00 | 0.00 | 0.00 | 84 | 1006.6 |
| 20260505111712 | 21 | 270 | 4.8 | 12.9 | 0.00 | 0.00 | 0.00 | 84 | 1006.6 |
| 20260505111210 | 21 | 225 | 6.4 | 12.9 | 0.00 | 0.00 | 0.00 | 84 | 1006.6 |
| 20260505110648 | 21 | 180 | 4.8 | 9.7 | 0.00 | 0.00 | 0.00 | 84 | 1006.4 |
| 20260505110144 | 21 | 270 | 6.4 | 8.0 | 0.00 | 0.00 | 0.00 | 83 | 1006.4 |
| 20260505101935 | 21 | 248 | 6.4 | 11.3 | 0.00 | 0.00 | 0.00 | 83 | 1006.7 |
| 20260505101405 | 21 | 270 | 6.4 | 11.3 | 0.00 | 0.00 | 0.00 | 83 | 1006.7 |
| 20260505100836 | 21 | 225 | 6.4 | 9.7 | 0.00 | 0.00 | 0.00 | 83 | 1006.7 |
| 20260505100307 | 21 | 202 | 6.4 | 9.7 | 0.00 | 0.00 | 0.00 | 83 | 1006.7 |
| 20260505095737 | 21 | 270 | 6.4 | 9.7 | 0.00 | 0.00 | 0.00 | 83 | 1006.7 |
| 20260505095448 | 21 | 202 | 8.0 | 14.5 | 0.00 | 0.00 | 0.00 | 83 | 1006.7 |
| 20260505094717 | 21 | 180 | 8.0 | 14.5 | 0.00 | 0.00 | 0.00 | 83 | 1006.8 |
| 20260505094419 | 21 | 225 | 6.4 | 9.7 | 0.00 | 0.00 | 0.00 | 83 | 1006.8 |
| 20260505093651 | 21 | 270 | 4.8 | 9.7 | 0.00 | 0.00 | 0.00 | 83 | 1006.8 |
| 20260505093149 | 21 | 270 | 6.4 | 9.7 | 0.00 | 0.00 | 0.00 | 83 | 1007.0 |
| 20260505092644 | 21 | 248 | 4.8 | 8.0 | 0.00 | 0.00 | 0.00 | 83 | 1007.0 |
| 20260505092131 | 21 | 68 | 4.8 | 9.7 | 0.00 | 0.00 | 0.00 | 83 | 1007.2 |
| 20260505091630 | 21 | 45 | 4.8 | 9.7 | 0.00 | 0.00 | 0.00 | 83 | 1007.2 |
| 20260505091101 | 21 | 225 | 8.0 | 11.3 | 0.00 | 0.00 | 0.00 | 83 | 1007.0 |
| 20260505090806 | 21 | 248 | 6.4 | 11.3 | 0.00 | 0.00 | 0.00 | 83 | 1007.0 |
| 20260505090042 | 21 | 315 | 8.0 | 11.3 | 0.00 | 0.00 | 0.00 | 83 | 1007.0 |
| 20260505085512 | 21 | 225 | 6.4 | 9.7 | 0.00 | 0.00 | 0.00 | 83 | 1007.0 |
| 20260505084944 | 21 | 225 | 6.4 | 11.3 | 0.00 | 0.00 | 0.00 | 83 | 1007.0 |
| 20260505084654 | 21 | 202 | 6.4 | 14.5 | 0.00 | 0.00 | 0.00 | 83 | 1007.0 |
| 20260505083928 | 21 | 270 | 9.7 | 14.5 | 0.00 | 0.00 | 0.00 | 83 | 1007.0 |
| 20260505083643 | 21 | 202 | 4.8 | 9.7 | 0.00 | 0.00 | 0.00 | 83 | 1007.0 |
| 20260505082900 | 21 | 202 | 8.0 | 9.7 | 0.00 | 0.00 | 0.00 | 83 | 1007.0 |
| 20260505082610 | 21 | 225 | 6.4 | 12.9 | 0.00 | 0.00 | 0.00 | 83 | 1007.0 |
| 20260505081842 | 21 | 248 | 9.7 | 12.9 | 0.00 | 0.00 | 0.00 | 83 | 1007.2 |
| 20260505081341 | 21 | 0 | 6.4 | 9.7 | 0.00 | 0.00 | 0.00 | 83 | 1007.2 |
| 20260505080836 | 21 | 180 | 6.4 | 9.7 | 0.00 | 0.00 | 0.00 | 83 | 1007.3 |
| 20260505080330 | 21 | 270 | 4.8 | 9.7 | 0.00 | 0.00 | 0.00 | 82 | 1007.3 |
| 20260505075822 | 21 | 225 | 6.4 | 14.5 | 0.00 | 0.00 | 0.00 | 82 | 1007.4 |
| 20260505075311 | 21 | 225 | 8.0 | 14.5 | 0.00 | 0.00 | 0.00 | 82 | 1007.4 |
| 20260505075030 | 21 | 90 | 4.8 | 9.7 | 0.00 | 0.00 | 0.00 | 82 | 1007.6 |
| 20260505074257 | 21 | 270 | 6.4 | 9.7 | 0.00 | 0.00 | 0.00 | 82 | 1007.6 |
| 20260505073747 | 21 | 112 | 6.4 | 11.3 | 0.00 | 0.00 | 0.00 | 82 | 1007.6 |
| 20260505073233 | 21 | 338 | 6.4 | 11.3 | 0.00 | 0.00 | 0.00 | 81 | 1007.9 |
| 20260505072728 | 21 | 338 | 6.4 | 11.3 | 0.00 | 0.00 | 0.00 | 81 | 1007.9 |
| 20260505072422 | 21 | 292 | 8.0 | 11.3 | 0.00 | 0.00 | 0.00 | 81 | 1008.0 |
| 20260505071923 | 21 | 202 | 6.4 | 9.7 | 0.00 | 0.00 | 0.00 | 81 | 1008.0 |
| 20260505071143 | 21 | 180 | 6.4 | 8.0 | 0.00 | 0.00 | 0.00 | 81 | 1008.1 |
| 20260505070629 | 21 | 202 | 4.8 | 8.0 | 0.00 | 0.00 | 0.00 | 81 | 1008.1 |
| 20260505070125 | 21 | 202 | 4.8 | 8.0 | 0.00 | 0.00 | 0.00 | 81 | 1008.1 |
| 20260505065554 | 21 | 270 | 6.4 | 8.0 | 0.00 | 0.00 | 0.00 | 80 | 1008.2 |
| 20260505065052 | 22 | 225 | 4.8 | 9.7 | 0.00 | 0.00 | 0.00 | 80 | 1008.2 |
| 20260505064542 | 22 | 180 | 6.4 | 12.9 | 0.00 | 0.00 | 0.00 | 80 | 1008.4 |
| 20260505064515 | 22 | 180 | 6.4 | 12.9 | 0.00 | 0.00 | 0.00 | 80 | 1008.4 |
| 20260505063523 | 22 | 248 | 6.4 | 8.0 | 0.00 | 0.00 | 0.00 | 79 | 1008.4 |
| 20260505062953 | 22 | 22 | 4.8 | 8.0 | 0.00 | 0.00 | 0.00 | 79 | 1008.4 |
| 20260505062423 | 22 | 202 | 4.8 | 9.7 | 0.00 | 0.00 | 0.00 | 79 | 1008.4 |
| 20260505061921 | 22 | 270 | 6.4 | 9.7 | 0.00 | 0.00 | 0.00 | 79 | 1008.4 |
| 20260505061410 | 22 | 248 | 4.8 | 9.7 | 0.00 | 0.00 | 0.00 | 79 | 1008.4 |
| 20260505060842 | 22 | 112 | 4.8 | 8.0 | 0.00 | 0.00 | 0.00 | 79 | 1008.4 |
| 20260505060259 | 22 | 270 | 6.4 | 8.0 | 0.00 | 0.00 | 0.00 | 79 | 1008.4 |
| 20260505055756 | 22 | 315 | 4.8 | 6.4 | 0.00 | 0.00 | 0.00 | 78 | 1008.5 |